Flagstaff, Arizona, United States (86001)
Lat: 35.20N, Lon: 111.65W
Wx Zone: AZZ015
Local Info
Past Weather Observations for Wednesday, February 25, 2015

NOTE: This archive is for the closest National Weather Service station to Flagstaff. Information may differ from the station used for current weather conditions.

Click here for Long-term Archive

Time Weather Temperature Dewpoint Humidity Pressure Winds Precip Visibility
22:57
Clear
28°F / -2°C 19°F / -7°C 69% 30.09 in
(1019 mb)
Variable 3.5 mph
(Variable 6 kph)
- 10SM
21:57
Clear
34°F / 1°C 21°F / -6°C 60% 30.09 in
(1019 mb)
N 3.5 mph
(N 6 kph)
- 10SM
20:57
Clear
37°F / 3°C 19°F / -7°C 48% 30.09 in
(1019 mb)
Variable 3.5 mph
(Variable 6 kph)
- 10SM
19:57
Clear
39°F / 4°C 19°F / -7°C 45% 30.09 in
(1019 mb)
Variable 5.8 mph
(Variable 9 kph)
- 10SM
18:57
Clear
41°F / 5°C 19°F / -7°C 42% 30.06 in
(1018 mb)
Variable 3.5 mph
(Variable 6 kph)
- 10SM
17:57
Clear
45°F / 7°C 19°F / -7°C 37% 30.06 in
(1018 mb)
NW 5.8 mph
(NW 9 kph)
- 10SM
16:57
Clear
48°F / 9°C 19°F / -7°C 32% 30.06 in
(1018 mb)
Variable 6.9 mph
(Variable 11 kph)
- 10SM
15:57
Clear
48°F / 9°C 19°F / -7°C 32% 30.06 in
(1018 mb)
NW 10.4 mph
(NW 17 kph)
- 10SM
14:57
Clear
48°F / 9°C 19°F / -7°C 32% 30.09 in
(1019 mb)
Calm - 10SM
13:57
Clear
48°F / 9°C 18°F / -8°C 29% 30.09 in
(1019 mb)
WNW 8.1 mph
(WNW 13 kph)
- 10SM
12:57
Clear
48°F / 9°C 18°F / -8°C 29% 30.09 in
(1019 mb)
Variable 6.9 mph
(Variable 11 kph)
- 10SM
11:57
Clear
48°F / 9°C 18°F / -8°C 29% 30.12 in
(1020 mb)
Variable 5.8 mph
(Variable 9 kph)
- 10SM
10:57
Clear
45°F / 7°C 19°F / -7°C 37% 30.12 in
(1020 mb)
SW 8.1 mph
(SW 13 kph)
- 10SM
09:57
Clear
46°F / 8°C 18°F / -8°C 32% 30.15 in
(1021 mb)
NNW 8.1 mph
(NNW 13 kph)
- 10SM
08:57
Clear
41°F / 5°C 19°F / -7°C 42% 30.15 in
(1021 mb)
Variable 6.9 mph
(Variable 11 kph)
- 10SM
07:57
Clear
19°F / -7°C 16°F / -9°C 86% 30.12 in
(1020 mb)
Calm - 10SM
06:57
Clear
14°F / -10°C 10°F / -12°C 85% 30.12 in
(1020 mb)
Calm - 10SM
05:57
Clear
14°F / -10°C 10°F / -12°C 85% 30.15 in
(1021 mb)
Calm - 10SM
04:57
Clear
14°F / -10°C 9°F / -13°C 79% 30.12 in
(1020 mb)
Calm - 10SM
03:57
Clear
12°F / -11°C 9°F / -13°C 85% 30.12 in
(1020 mb)
E 3.5 mph
(E 6 kph)
- 10SM
02:57
Clear
14°F / -10°C 10°F / -12°C 85% 30.15 in
(1021 mb)
Calm - 10SM
01:57
Clear
16°F / -9°C 10°F / -12°C 79% 30.18 in
(1022 mb)
Calm - 10SM
00:57
Clear
16°F / -9°C 12°F / -11°C 86% 30.18 in
(1022 mb)
Calm - 10SM
Time Weather Temperature Dewpoint Humidity Pressure Winds Precip Visibility


Weather for websites

WeatherForYou.com, LLC is not responsible for any damages or problems caused by this service. Current weather conditions are obtained from the closest station including government and personal stations which may have varying degrees of accuracy. Weather forecasts are derived from the NOAA NDFD. Like all things, this site belongs to Jesus Christ... He just trusts me to maintain it. If you have any questions or comments email webmaster@weatherforyou.com

Copyright © 2015, WeatherForYou.com LLC. All rights reserved.